FW5431 Weather Reports


Display with metric or nautical units.
time (UTC)temp
F
wind
direction
speed
MPH
gust
MPH
rain 1hr
in
rain 24hr
in
rain mn
in
humidity
%
barometer
mb
20260902203057 68 88 4.0 7.0 0.00 0.00 0.00 100 1018.2
20260902201623 69 28 3.0 8.0 0.00 0.00 0.00 100 1018.1
20260902200057 69 77 4.0 10.0 0.00 0.00 0.00 100 1017.8
20260902194557 69 104 4.0 12.0 0.00 0.00 0.00 100 1017.8
20260902193100 70 43 7.0 12.0 0.00 0.00 0.00 100 1017.7
20260902191557 71 98 7.0 14.0 0.00 0.00 0.00 100 1017.5
20260902190057 72 99 5.0 9.0 0.00 0.00 0.00 100 1017.4
20260902184557 71 47 3.0 11.0 0.00 0.00 0.00 100 1017.4
20260902183057 71 34 5.0 10.0 0.00 0.00 0.00 100 1017.4
20260902181602 73 79 7.0 12.0 0.00 0.00 0.00 100 1017.4
20260902180058 73 355 5.0 13.0 0.00 0.00 0.00 100 1017.2
20260902174558 74 63 5.0 12.0 0.00 0.00 0.00 100 1017.2
20260902173057 74 27 4.0 12.0 0.00 0.00 0.00 100 1017.3
20260902171557 74 27 5.0 11.0 0.00 0.00 0.00 100 1017.4
20260902170100 75 344 3.0 7.0 0.00 0.00 0.00 100 1017.5
20260902164558 74 7 1.0 7.0 0.00 0.00 0.00 100 1017.7
20260902163057 74 56 3.0 7.0 0.00 0.00 0.00 100 1018.0
20260902161557 74 39 3.0 7.0 0.00 0.00 0.00 100 1018.3
20260902160057 74 35 3.0 7.0 0.00 0.00 0.00 100 1018.4
20260902154556 73 89 3.0 7.0 0.00 0.00 0.00 100 1018.7
20260902153057 72 96 3.0 7.0 0.00 0.00 0.00 100 1018.9
20260902151600 73 74 1.0 7.0 0.00 0.00 0.00 100 1019.1
20260902150058 72 86 2.0 5.0 0.00 0.00 0.00 100 1019.1
20260902144600 72 18 2.0 4.0 0.00 0.00 0.00 100 1019.2
20260902143057 72 108 1.0 5.0 0.00 0.00 0.00 100 1019.4
20260902141601 72 12 3.0 7.0 0.00 0.00 0.00 100 1019.6
20260902140106 71 57 3.0 6.0 0.00 0.00 0.00 100 1019.6
20260902134559 70 71 3.0 5.0 0.00 0.00 0.00 100 1019.7
20260902133104 70 169 3.0 8.0 0.00 0.00 0.00 100 1019.6
20260902131601 69 144 1.0 4.0 0.00 0.00 0.00 100 1019.7
20260902130100 68 332 1.0 6.0 0.00 0.00 0.00 100 1019.8
20260902124557 68 204 2.0 4.0 0.00 0.00 0.00 100 1019.6
20260902123102 67 44 0.0 4.0 0.00 0.00 0.00 100 1019.6
20260902121607 66 67 1.0 3.0 0.00 0.00 0.00 100 1019.5
20260902120057 65 304 1.0 3.0 0.00 0.00 0.00 100 1019.4
20260902114557 65 1 0.0 3.0 0.00 0.00 0.00 100 1019.3
20260902113104 64 311 1.0 6.0 0.00 0.00 0.00 100 1019.1
20260902111559 63 93 1.0 4.0 0.00 0.00 0.00 100 1019.0
20260902110059 62 67 2.0 5.0 0.00 0.00 0.00 100 1018.8
20260902104610 62 49 2.0 4.0 0.00 0.00 0.00 100 1018.5
20260902103104 62 42 1.0 4.0 0.00 0.00 0.00 100 1018.3
20260902101556 61 51 2.0 4.0 0.00 0.00 0.00 100 1018.1
20260902100100 61 92 2.0 4.0 0.00 0.00 0.00 100 1018.1
20260902094559 62 27 3.0 5.0 0.00 0.00 0.00 100 1017.9
20260902093057 62 82 1.0 4.0 0.00 0.00 0.00 100 1017.5
20260902091606 62 47 0.0 3.0 0.00 0.00 0.00 100 1017.4
20260902090104 62 252 0.0 1.0 0.00 0.00 0.00 100 1017.2
20260902084605 62 253 0.0 2.0 0.00 0.00 0.00 100 1017.0
20260902083113 62 253 0.0 1.0 0.00 0.00 0.00 100 1016.8
20260902081557 62 253 0.0 0.0 0.00 0.00 0.00 100 1016.8
20260902080058 62 253 0.0 1.0 0.00 0.00 0.00 100 1016.8
20260902074609 62 253 0.0 0.0 0.00 0.00 0.00 100 1016.7
20260902073058 62 253 0.0 1.0 0.00 0.00 0.00 100 1016.5
20260902071557 61 253 1.0 2.0 0.00 0.00 0.00 100 1016.6
20260902070056 61 253 0.0 2.0 0.00 0.00 0.00 100 1016.5
20260902064557 61 252 0.0 0.0 0.00 0.00 0.00 100 1016.7
20260902063057 62 252 0.0 0.0 0.00 0.00 0.00 100 1016.6
20260902061557 62 252 0.0 0.0 0.00 0.00 0.00 100 1016.7
20260902060105 62 252 0.0 0.0 0.00 0.00 0.00 100 1016.8
20260902054607 62 252 0.0 0.0 0.00 0.00 0.00 100 1016.9
20260902053111 62 252 0.0 0.0 0.00 0.00 0.00 100 1016.8
20260902051609 62 252 0.0 0.0 0.00 0.00 0.00 100 1016.8
20260902050100 62 252 0.0 0.0 0.00 0.00 0.00 100 1016.8
20260902044556 62 252 0.0 0.0 0.00 0.00 0.00 100 1017.0
20260902043117 62 252 0.0 0.0 0.00 0.00 0.00 100 1017.0
20260902041557 62 252 0.0 1.0 0.00 0.00 0.00 100 1017.1
20260902040056 62 252 0.0 2.0 0.00 0.00 0.00 100 1017.0
20260902040001 62 252 0.0 2.0 0.00 0.00 0.00 100 1017.0
20260902034558 62 252 0.0 1.0 0.00 0.00 0.00 100 1016.9
20260902033058 62 252 0.0 2.0 0.00 0.00 0.00 100 1016.8
20260902031558 62 252 0.0 2.0 0.00 0.00 0.00 100 1016.6
20260902030057 61 252 0.0 1.0 0.00 0.00 0.00 100 1016.6
20260902030002 62 251 0.0 1.0 0.00 0.00 0.00 100 1016.6
20260902024559 61 252 0.0 2.0 0.00 0.01 0.00 100 1016.5
20260902023108 61 252 1.0 3.0 0.00 0.01 0.00 100 1016.3
20260902021603 61 249 0.0 2.0 0.00 0.01 0.00 100 1016.2
20260902020058 61 259 0.0 3.0 0.00 0.01 0.00 100 1016.1
20260902020000 61 259 0.0 3.0 0.00 0.01 0.00 100 1016.1
20260902014558 62 50 0.0 1.0 0.00 0.04 0.00 100 1015.8
20260902013057 62 50 0.0 2.0 0.00 0.04 0.00 100 1015.6
20260902011630 62 50 1.0 2.0 0.00 0.04 0.00 100 1015.2
20260902010057 63 50 0.0 1.0 0.00 0.04 0.00 100 1014.8
20260902004558 63 50 0.0 2.0 0.00 0.20 0.00 100 1014.6
20260902003105 63 134 1.0 3.0 0.00 0.20 0.00 100 1014.6
20260902001559 63 134 0.0 3.0 0.00 0.20 0.00 100 1014.5
20260901234605 64 197 1.0 3.0 0.00 0.35 0.00 100 1014.3
20260901233103 64 209 0.0 2.0 0.00 0.35 0.00 100 1014.1
20260901231613 64 208 0.0 2.0 0.00 0.35 0.00 100 1013.9
20260901230110 64 208 0.0 1.0 0.00 0.35 0.00 100 1013.6
20260901224558 65 208 0.0 3.0 0.00 0.48 0.00 100 1013.3
20260901223057 65 304 1.0 4.0 0.00 0.48 0.00 100 1012.6
20260901221624 65 250 0.0 0.0 0.00 0.48 0.00 100 1012.1
20260901220115 66 250 0.0 2.0 0.00 0.48 0.00 100 1011.8
20260901214557 66 250 0.0 1.0 0.00 0.50 0.00 100 1011.4
20260901213108 67 250 0.0 1.0 0.00 0.50 0.00 100 1011.3
20260901211558 68 250 0.0 0.0 0.00 0.50 0.00 100 1010.9
20260901210106 68 250 0.0 1.0 0.00 0.50 0.00 100 1010.8
20260901204611 70 250 0.0 2.0 0.00 0.68 0.00 100 1010.7